Location: Unspecified
(48.7971°N, 123.6320°W)
Time: 15:45:09
(UTC-07:00)

Okean 3 - Pass Details

Date: 02 July 2019
Orbit: 577 x 601 km, 82.5° (Epoch: 14 July)

Event Time Altitude Azimuth Distance (km) Brightness Sun altitude
Rises 03:45:25 0° 351° (N) 2,861 7.8 -11.0°
Reaches altitude 10° 03:47:39 10° 354° (N) 1,951 6.9 -10.8°
Maximum altitude 03:51:58 74° 79° (E) 626 3.7 -10.4°
Drops below altitude 10° 03:56:13 10° 165° (SSE) 1,924 5.7 -10.0°
Enters shadow 03:58:01 - 167° (SSE) 2,657 6.4 -9.8°
